| time (UTC) | temp F | wind direction | speed MPH | gust MPH | rain 1hr in | rain 24hr in | rain mn in | humidity % | barometer mb |
| 20260905043927 | 77 | 164 | 4.0 | 6.0 | 0.00 | 0.00 | 0.00 | 81 | 1007.5 |
| 20260905043426 | 76 | 162 | 2.0 | 5.0 | 0.00 | 0.00 | 0.00 | 82 | 1007.6 |
| 20260905042921 | 76 | 144 | 2.0 | 5.0 | 0.00 | 0.00 | 0.00 | 82 | 1007.6 |
| 20260905042416 | 76 | 195 | 4.0 | 5.0 | 0.00 | 0.00 | 0.00 | 83 | 1007.5 |
| 20260905041910 | 75 | 198 | 3.0 | 6.0 | 0.00 | 0.00 | 0.00 | 84 | 1007.4 |
| 20260905041407 | 75 | 83 | 2.0 | 2.0 | 0.00 | 0.00 | 0.00 | 85 | 1007.5 |
| 20260905040901 | 74 | 215 | 2.0 | 2.0 | 0.00 | 0.00 | 0.00 | 85 | 1007.4 |
| 20260905040400 | 74 | 22 | 0.0 | 0.0 | 0.00 | 0.00 | 0.00 | 85 | 1007.4 |
| 20260905035859 | 74 | 56 | 0.0 | 1.0 | 0.00 | 0.00 | 0.00 | 85 | 1007.4 |
| 20260905035350 | 74 | 26 | 0.0 | 0.0 | 0.00 | 0.00 | 0.00 | 85 | 1007.2 |
| 20260905034846 | 74 | 23 | 0.0 | 1.0 | 0.00 | 0.00 | 0.00 | 85 | 1007.6 |
| 20260905034342 | 74 | 47 | 0.0 | 0.0 | 0.00 | 0.00 | 0.00 | 85 | 1007.4 |
| 20260905033840 | 74 | 70 | 0.0 | 2.0 | 0.00 | 0.00 | 0.00 | 85 | 1007.3 |
| 20260905033336 | 74 | 119 | 1.0 | 3.0 | 0.00 | 0.00 | 0.00 | 84 | 1007.1 |
| 20260905032835 | 74 | 53 | 0.0 | 1.0 | 0.00 | 0.00 | 0.00 | 84 | 1007.6 |
| 20260905032331 | 74 | 41 | 0.0 | 1.0 | 0.00 | 0.00 | 0.00 | 84 | 1007.5 |
| 20260905031826 | 74 | 23 | 0.0 | 0.0 | 0.00 | 0.00 | 0.00 | 84 | 1007.4 |
| 20260905031321 | 75 | 75 | 0.0 | 1.0 | 0.00 | 0.00 | 0.00 | 84 | 1007.2 |
| 20260905030816 | 75 | 66 | 0.0 | 0.0 | 0.00 | 0.00 | 0.00 | 84 | 1007.3 |
| 20260905030312 | 75 | 84 | 1.0 | 1.0 | 0.00 | 0.00 | 0.00 | 84 | 1007.0 |
| 20260905025811 | 75 | 67 | 1.0 | 1.0 | 0.00 | 0.00 | 0.00 | 84 | 1007.3 |
| 20260905025307 | 75 | 87 | 0.0 | 2.0 | 0.00 | 0.00 | 0.00 | 84 | 1007.2 |
| 20260905024803 | 74 | 114 | 2.0 | 2.0 | 0.00 | 0.00 | 0.00 | 85 | 1007.2 |
| 20260905024258 | 74 | 68 | 0.0 | 1.0 | 0.00 | 0.00 | 0.00 | 85 | 1007.2 |
| 20260905023753 | 74 | 24 | 1.0 | 2.0 | 0.00 | 0.00 | 0.00 | 85 | 1007.0 |
| 20260905023248 | 75 | 22 | 0.0 | 1.0 | 0.00 | 0.00 | 0.00 | 85 | 1007.0 |
| 20260905022747 | 74 | 15 | 0.0 | 1.0 | 0.00 | 0.00 | 0.00 | 85 | 1007.1 |
| 20260905022243 | 74 | 72 | 1.0 | 2.0 | 0.00 | 0.00 | 0.00 | 85 | 1007.0 |
| 20260905021742 | 74 | 52 | 0.0 | 2.0 | 0.00 | 0.00 | 0.00 | 85 | 1006.8 |
| 20260905021237 | 74 | 131 | 2.0 | 2.0 | 0.00 | 0.00 | 0.00 | 85 | 1007.0 |
| 20260905020732 | 74 | 72 | 1.0 | 1.0 | 0.00 | 0.00 | 0.00 | 85 | 1007.0 |
| 20260905020227 | 74 | 79 | 1.0 | 2.0 | 0.00 | 0.00 | 0.00 | 86 | 1006.9 |
| 20260905015726 | 74 | 84 | 3.0 | 3.0 | 0.00 | 0.00 | 0.00 | 86 | 1006.8 |
| 20260905015221 | 74 | 40 | 0.0 | 1.0 | 0.00 | 0.00 | 0.00 | 85 | 1007.0 |
| 20260905014720 | 74 | 34 | 0.0 | 0.0 | 0.00 | 0.00 | 0.00 | 85 | 1006.9 |
| 20260905014216 | 74 | 31 | 0.0 | 1.0 | 0.00 | 0.00 | 0.00 | 85 | 1006.8 |
| 20260905013711 | 74 | 38 | 0.0 | 1.0 | 0.00 | 0.00 | 0.00 | 85 | 1006.7 |
| 20260905013207 | 74 | 4 | 2.0 | 2.0 | 0.00 | 0.00 | 0.00 | 85 | 1006.6 |
| 20260905012702 | 74 | 30 | 0.0 | 1.0 | 0.00 | 0.00 | 0.00 | 85 | 1006.7 |
| 20260905012157 | 74 | 16 | 1.0 | 1.0 | 0.00 | 0.00 | 0.00 | 85 | 1006.7 |
| 20260905011654 | 74 | 23 | 0.0 | 1.0 | 0.00 | 0.00 | 0.00 | 85 | 1006.7 |
| 20260905011144 | 74 | 9 | 1.0 | 1.0 | 0.00 | 0.00 | 0.00 | 85 | 1006.8 |
| 20260905010638 | 74 | 233 | 1.0 | 1.0 | 0.00 | 0.00 | 0.00 | 85 | 1006.8 |
| 20260905010134 | 75 | 24 | 0.0 | 1.0 | 0.00 | 0.00 | 0.00 | 85 | 1006.8 |
| 20260905005630 | 75 | 24 | 1.0 | 2.0 | 0.00 | 0.00 | 0.00 | 85 | 1006.7 |
| 20260905005125 | 75 | 29 | 0.0 | 2.0 | 0.00 | 0.00 | 0.00 | 85 | 1006.9 |
| 20260905004619 | 74 | 259 | 1.0 | 2.0 | 0.00 | 0.00 | 0.00 | 85 | 1006.7 |
| 20260905004115 | 75 | 47 | 0.0 | 2.0 | 0.00 | 0.00 | 0.00 | 84 | 1006.7 |
| 20260905003610 | 75 | 228 | 0.0 | 2.0 | 0.00 | 0.00 | 0.00 | 85 | 1006.7 |
| 20260905003106 | 75 | 167 | 3.0 | 5.0 | 0.00 | 0.00 | 0.00 | 85 | 1006.9 |
| 20260905002601 | 75 | 24 | 0.0 | 2.0 | 0.00 | 0.00 | 0.00 | 85 | 1006.5 |
| 20260905002055 | 75 | 128 | 1.0 | 2.0 | 0.00 | 0.00 | 0.00 | 85 | 1006.7 |
| 20260905001550 | 75 | 150 | 1.0 | 1.0 | 0.00 | 0.00 | 0.00 | 85 | 1006.8 |
| 20260905001045 | 75 | 159 | 1.0 | 2.0 | 0.00 | 0.00 | 0.00 | 85 | 1007.0 |
| 20260905000540 | 75 | 0 | 1.0 | 1.0 | 0.00 | 0.00 | 0.00 | 85 | 1006.8 |
| 20260905000036 | 75 | 33 | 0.0 | 1.0 | 0.00 | 0.00 | 0.00 | 85 | 1007.0 |
| 20260904235531 | 75 | 61 | 0.0 | 0.0 | 0.00 | 0.00 | 0.00 | 85 | 1006.8 |
| 20260904235031 | 74 | 30 | 0.0 | 0.0 | 0.00 | 0.00 | 0.00 | 85 | 1007.0 |
| 20260904234531 | 74 | 32 | 0.0 | 0.0 | 0.00 | 0.00 | 0.00 | 85 | 1006.9 |
| 20260904234026 | 74 | 53 | 0.0 | 0.0 | 0.00 | 0.00 | 0.00 | 85 | 1006.8 |
| 20260904233521 | 74 | 348 | 1.0 | 1.0 | 0.00 | 0.00 | 0.00 | 85 | 1006.7 |
| 20260904233018 | 74 | 54 | 0.0 | 0.0 | 0.00 | 0.00 | 0.00 | 85 | 1006.7 |
| 20260904232514 | 74 | 62 | 0.0 | 0.0 | 0.00 | 0.00 | 0.00 | 85 | 1006.8 |
| 20260904232011 | 74 | 50 | 0.0 | 0.0 | 0.00 | 0.00 | 0.00 | 85 | 1007.0 |
| 20260904231506 | 74 | 56 | 1.0 | 2.0 | 0.00 | 0.00 | 0.00 | 85 | 1006.9 |
| 20260904231000 | 74 | 103 | 2.0 | 2.0 | 0.00 | 0.00 | 0.00 | 85 | 1006.8 |
| 20260904230459 | 75 | 53 | 0.0 | 1.0 | 0.00 | 0.00 | 0.00 | 84 | 1006.9 |
| 20260904225955 | 75 | 74 | 0.0 | 1.0 | 0.00 | 0.00 | 0.00 | 84 | 1006.9 |
| 20260904225452 | 75 | 88 | 1.0 | 1.0 | 0.00 | 0.00 | 0.00 | 84 | 1006.9 |
| 20260904224946 | 75 | 41 | 0.0 | 1.0 | 0.00 | 0.00 | 0.00 | 84 | 1006.9 |
| 20260904224443 | 74 | 40 | 0.0 | 0.0 | 0.00 | 0.00 | 0.00 | 84 | 1006.9 |
| 20260904223942 | 75 | 33 | 0.0 | 0.0 | 0.00 | 0.00 | 0.00 | 84 | 1006.9 |
| 20260904223441 | 75 | 64 | 1.0 | 2.0 | 0.00 | 0.00 | 0.00 | 84 | 1006.8 |
| 20260904222937 | 75 | 88 | 1.0 | 1.0 | 0.00 | 0.00 | 0.00 | 84 | 1006.8 |
| 20260904222433 | 75 | 57 | 0.0 | 1.0 | 0.00 | 0.00 | 0.00 | 84 | 1006.9 |
| 20260904221932 | 75 | 57 | 1.0 | 2.0 | 0.00 | 0.00 | 0.00 | 83 | 1007.0 |
| 20260904221427 | 75 | 48 | 0.0 | 0.0 | 0.00 | 0.00 | 0.00 | 83 | 1006.9 |
| 20260904220923 | 75 | 65 | 0.0 | 2.0 | 0.00 | 0.00 | 0.00 | 83 | 1006.9 |
| 20260904220422 | 75 | 77 | 0.0 | 1.0 | 0.00 | 0.00 | 0.00 | 83 | 1007.1 |
| 20260904215917 | 75 | 71 | 0.0 | 0.0 | 0.00 | 0.00 | 0.00 | 83 | 1007.0 |
| 20260904215412 | 76 | 84 | 1.0 | 2.0 | 0.00 | 0.00 | 0.00 | 83 | 1006.9 |
| 20260904214908 | 76 | 122 | 2.0 | 2.0 | 0.00 | 0.00 | 0.00 | 83 | 1006.9 |
| 20260904214404 | 76 | 59 | 1.0 | 2.0 | 0.00 | 0.00 | 0.00 | 83 | 1007.0 |
| 20260904213902 | 76 | 82 | 1.0 | 2.0 | 0.00 | 0.00 | 0.00 | 82 | 1006.9 |
| 20260904213357 | 76 | 43 | 0.0 | 1.0 | 0.00 | 0.00 | 0.00 | 82 | 1007.2 |
| 20260904212853 | 76 | 3 | 1.0 | 2.0 | 0.00 | 0.00 | 0.00 | 82 | 1007.1 |
| 20260904212352 | 76 | 51 | 0.0 | 1.0 | 0.00 | 0.00 | 0.00 | 82 | 1007.2 |
| 20260904211848 | 76 | 97 | 1.0 | 2.0 | 0.00 | 0.00 | 0.00 | 82 | 1006.9 |
| 20260904211343 | 76 | 69 | 0.0 | 1.0 | 0.00 | 0.00 | 0.00 | 82 | 1006.9 |
| 20260904210837 | 76 | 99 | 2.0 | 2.0 | 0.00 | 0.00 | 0.00 | 82 | 1007.1 |
| 20260904210332 | 76 | 114 | 1.0 | 2.0 | 0.00 | 0.00 | 0.00 | 82 | 1007.0 |
| 20260904205829 | 76 | 80 | 0.0 | 2.0 | 0.00 | 0.00 | 0.00 | 82 | 1007.2 |
| 20260904205324 | 76 | 72 | 1.0 | 2.0 | 0.00 | 0.00 | 0.00 | 82 | 1007.0 |
| 20260904204821 | 76 | 139 | 1.0 | 2.0 | 0.00 | 0.00 | 0.00 | 82 | 1007.1 |
| 20260904204316 | 76 | 76 | 1.0 | 3.0 | 0.00 | 0.00 | 0.00 | 82 | 1007.1 |
| 20260904203813 | 77 | 52 | 1.0 | 3.0 | 0.00 | 0.00 | 0.00 | 82 | 1007.1 |
| 20260904203309 | 77 | 73 | 1.0 | 2.0 | 0.00 | 0.00 | 0.00 | 82 | 1007.0 |
| 20260904202804 | 77 | 63 | 1.0 | 2.0 | 0.00 | 0.00 | 0.00 | 81 | 1007.0 |
| 20260904202300 | 77 | 55 | 0.0 | 1.0 | 0.00 | 0.00 | 0.00 | 81 | 1006.9 |
| 20260904201756 | 77 | 61 | 1.0 | 1.0 | 0.00 | 0.00 | 0.00 | 81 | 1006.9 |
| 20260904201255 | 77 | 50 | 0.0 | 0.0 | 0.00 | 0.00 | 0.00 | 81 | 1006.9 |
| 20260904200750 | 77 | 67 | 0.0 | 1.0 | 0.00 | 0.00 | 0.00 | 81 | 1007.1 |
| 20260904200244 | 77 | 64 | 0.0 | 0.0 | 0.00 | 0.00 | 0.00 | 81 | 1007.0 |
| 20260904195743 | 77 | 75 | 0.0 | 1.0 | 0.00 | 0.00 | 0.00 | 81 | 1007.0 |
| 20260904195242 | 77 | 49 | 0.0 | 0.0 | 0.00 | 0.00 | 0.00 | 81 | 1007.0 |
| 20260904194738 | 77 | 64 | 0.0 | 0.0 | 0.00 | 0.00 | 0.00 | 81 | 1006.8 |
| 20260904194236 | 78 | 51 | 0.0 | 0.0 | 0.00 | 0.00 | 0.00 | 80 | 1007.0 |
| 20260904193732 | 78 | 69 | 0.0 | 1.0 | 0.00 | 0.00 | 0.00 | 81 | 1007.1 |
| 20260904193227 | 78 | 76 | 1.0 | 1.0 | 0.00 | 0.00 | 0.00 | 81 | 1007.0 |
| 20260904192723 | 78 | 65 | 0.0 | 1.0 | 0.00 | 0.00 | 0.00 | 81 | 1007.1 |
| 20260904192218 | 78 | 60 | 0.0 | 1.0 | 0.00 | 0.00 | 0.00 | 80 | 1006.9 |
| 20260904191714 | 78 | 80 | 1.0 | 1.0 | 0.00 | 0.00 | 0.00 | 80 | 1006.8 |
| 20260904191210 | 78 | 64 | 0.0 | 0.0 | 0.00 | 0.00 | 0.00 | 81 | 1007.0 |
| 20260904190707 | 78 | 55 | 0.0 | 0.0 | 0.00 | 0.00 | 0.00 | 80 | 1006.7 |
| 20260904190202 | 78 | 35 | 0.0 | 0.0 | 0.00 | 0.00 | 0.00 | 80 | 1006.8 |
| 20260904185659 | 78 | 36 | 0.0 | 0.0 | 0.00 | 0.00 | 0.00 | 80 | 1007.0 |
| 20260904185154 | 79 | 37 | 0.0 | 0.0 | 0.00 | 0.00 | 0.00 | 80 | 1007.0 |
| 20260904184652 | 78 | 74 | 0.0 | 0.0 | 0.00 | 0.00 | 0.00 | 80 | 1006.9 |
| 20260904184148 | 79 | 31 | 0.0 | 0.0 | 0.00 | 0.00 | 0.00 | 80 | 1007.0 |
| 20260904183643 | 79 | 20 | 0.0 | 0.0 | 0.00 | 0.00 | 0.00 | 79 | 1007.1 |
| 20260904183137 | 79 | 19 | 0.0 | 0.0 | 0.00 | 0.00 | 0.00 | 79 | 1006.9 |
| 20260904182632 | 79 | 18 | 0.0 | 1.0 | 0.00 | 0.00 | 0.00 | 79 | 1007.0 |
| 20260904182127 | 79 | 0 | 0.0 | 1.0 | 0.00 | 0.00 | 0.00 | 79 | 1007.0 |
| 20260904181623 | 79 | 346 | 0.0 | 0.0 | 0.00 | 0.00 | 0.00 | 79 | 1007.1 |
| 20260904181118 | 79 | 345 | 0.0 | 1.0 | 0.00 | 0.00 | 0.00 | 79 | 1007.0 |
| 20260904180613 | 79 | 340 | 0.0 | 1.0 | 0.00 | 0.00 | 0.00 | 79 | 1006.8 |
| 20260904180109 | 79 | 339 | 0.0 | 1.0 | 0.00 | 0.00 | 0.00 | 78 | 1006.9 |
| 20260904175608 | 80 | 340 | 1.0 | 1.0 | 0.00 | 0.00 | 0.00 | 78 | 1006.9 |
| 20260904175106 | 80 | 339 | 1.0 | 2.0 | 0.00 | 0.00 | 0.00 | 78 | 1006.7 |
| 20260904174601 | 80 | 340 | 1.0 | 2.0 | 0.00 | 0.00 | 0.00 | 78 | 1006.9 |
| 20260904174058 | 80 | 327 | 2.0 | 2.0 | 0.00 | 0.00 | 0.00 | 78 | 1006.6 |
| 20260904173557 | 80 | 323 | 1.0 | 2.0 | 0.00 | 0.00 | 0.00 | 78 | 1006.9 |
| 20260904173053 | 80 | 319 | 2.0 | 2.0 | 0.00 | 0.00 | 0.00 | 78 | 1006.6 |
| 20260904172549 | 80 | 340 | 1.0 | 1.0 | 0.00 | 0.00 | 0.00 | 78 | 1006.6 |
| 20260904172048 | 80 | 350 | 1.0 | 2.0 | 0.00 | 0.00 | 0.00 | 78 | 1006.5 |
| 20260904171543 | 80 | 336 | 1.0 | 2.0 | 0.00 | 0.00 | 0.00 | 78 | 1006.5 |
| 20260904171039 | 80 | 304 | 2.0 | 2.0 | 0.00 | 0.00 | 0.00 | 78 | 1006.6 |
| 20260904170534 | 80 | 8 | 3.0 | 3.0 | 0.00 | 0.00 | 0.00 | 77 | 1006.2 |
| 20260904170031 | 80 | 345 | 3.0 | 3.0 | 0.00 | 0.00 | 0.00 | 77 | 1006.2 |
| 20260904165528 | 81 | 326 | 3.0 | 3.0 | 0.00 | 0.00 | 0.00 | 77 | 1006.2 |
| 20260904165023 | 81 | 5 | 3.0 | 5.0 | 0.00 | 0.00 | 0.00 | 77 | 1006.3 |
| 20260904164518 | 81 | 305 | 5.0 | 5.0 | 0.00 | 0.00 | 0.00 | 77 | 1006.0 |
| 20260904164014 | 81 | 336 | 4.0 | 6.0 | 0.00 | 0.00 | 0.00 | 76 | 1006.1 |
| 20260904163514 | 81 | 7 | 4.0 | 6.0 | 0.00 | 0.00 | 0.00 | 76 | 1006.2 |
| 20260904163009 | 81 | 328 | 4.0 | 5.0 | 0.00 | 0.00 | 0.00 | 75 | 1006.0 |
| 20260904162503 | 81 | 346 | 4.0 | 6.0 | 0.00 | 0.00 | 0.00 | 75 | 1005.9 |
| 20260904161959 | 81 | 6 | 4.0 | 6.0 | 0.00 | 0.00 | 0.00 | 74 | 1005.9 |
| 20260904161453 | 82 | 359 | 5.0 | 7.0 | 0.00 | 0.00 | 0.00 | 74 | 1006.1 |
| 20260904160949 | 82 | 318 | 5.0 | 6.0 | 0.00 | 0.00 | 0.00 | 74 | 1005.8 |
| 20260904160443 | 82 | 7 | 4.0 | 5.0 | 0.00 | 0.00 | 0.00 | 73 | 1005.7 |
| 20260904155938 | 82 | 290 | 4.0 | 7.0 | 0.00 | 0.00 | 0.00 | 73 | 1005.6 |
| 20260904155433 | 83 | 339 | 3.0 | 6.0 | 0.00 | 0.00 | 0.00 | 72 | 1005.6 |
| 20260904154932 | 82 | 43 | 3.0 | 7.0 | 0.00 | 0.00 | 0.00 | 72 | 1005.6 |
| 20260904154427 | 83 | 336 | 5.0 | 7.0 | 0.00 | 0.00 | 0.00 | 72 | 1005.4 |
| 20260904153922 | 83 | 4 | 5.0 | 9.0 | 0.00 | 0.00 | 0.00 | 71 | 1005.4 |
| 20260904153417 | 83 | 341 | 6.0 | 8.0 | 0.00 | 0.00 | 0.00 | 71 | 1005.6 |
| 20260904152913 | 84 | 6 | 6.0 | 7.0 | 0.00 | 0.00 | 0.00 | 70 | 1005.6 |
| 20260904152408 | 84 | 251 | 8.0 | 9.0 | 0.00 | 0.00 | 0.00 | 70 | 1005.6 |
| 20260904151907 | 84 | 324 | 6.0 | 7.0 | 0.00 | 0.00 | 0.00 | 70 | 1005.4 |
| 20260904151403 | 84 | 337 | 4.0 | 8.0 | 0.00 | 0.00 | 0.00 | 69 | 1005.5 |
| 20260904150858 | 84 | 326 | 4.0 | 7.0 | 0.00 | 0.00 | 0.00 | 69 | 1005.3 |
| 20260904150353 | 85 | 268 | 5.0 | 11.0 | 0.00 | 0.00 | 0.00 | 68 | 1005.2 |
| 20260904145850 | 85 | 43 | 5.0 | 6.0 | 0.00 | 0.00 | 0.00 | 68 | 1005.1 |
| 20260904145347 | 85 | 354 | 6.0 | 11.0 | 0.00 | 0.00 | 0.00 | 67 | 1005.3 |
| 20260904144842 | 85 | 308 | 6.0 | 11.0 | 0.00 | 0.00 | 0.00 | 67 | 1005.4 |
| 20260904144338 | 85 | 359 | 3.0 | 9.0 | 0.00 | 0.00 | 0.00 | 66 | 1005.2 |
| 20260904143833 | 86 | 340 | 6.0 | 8.0 | 0.00 | 0.00 | 0.00 | 66 | 1005.4 |
| 20260904143330 | 86 | 302 | 6.0 | 9.0 | 0.00 | 0.00 | 0.00 | 65 | 1005.1 |
| 20260904142826 | 85 | 253 | 5.0 | 7.0 | 0.00 | 0.00 | 0.00 | 65 | 1005.0 |
| 20260904142321 | 86 | 277 | 6.0 | 7.0 | 0.00 | 0.00 | 0.00 | 65 | 1005.3 |
| 20260904141816 | 86 | 343 | 4.0 | 5.0 | 0.00 | 0.00 | 0.00 | 65 | 1004.9 |
| 20260904141311 | 85 | 337 | 6.0 | 11.0 | 0.00 | 0.00 | 0.00 | 64 | 1005.3 |
| 20260904140808 | 86 | 351 | 10.0 | 11.0 | 0.00 | 0.00 | 0.00 | 64 | 1005.1 |
| 20260904140302 | 86 | 359 | 6.0 | 8.0 | 0.00 | 0.00 | 0.00 | 65 | 1005.2 |
| 20260904135801 | 87 | 349 | 11.0 | 14.0 | 0.00 | 0.00 | 0.00 | 63 | 1005.1 |
| 20260904135256 | 87 | 301 | 6.0 | 11.0 | 0.00 | 0.00 | 0.00 | 63 | 1005.1 |
| 20260904134753 | 86 | 356 | 10.0 | 15.0 | 0.00 | 0.00 | 0.00 | 64 | 1005.1 |
| 20260904134252 | 86 | 343 | 11.0 | 13.0 | 0.00 | 0.00 | 0.00 | 63 | 1005.2 |
| 20260904133747 | 87 | 4 | 5.0 | 8.0 | 0.00 | 0.00 | 0.00 | 62 | 1005.1 |
| 20260904133243 | 87 | 350 | 5.0 | 10.0 | 0.00 | 0.00 | 0.00 | 64 | 1005.2 |
| 20260904132742 | 88 | 340 | 6.0 | 10.0 | 0.00 | 0.00 | 0.00 | 61 | 1005.0 |
| 20260904132238 | 87 | 251 | 6.0 | 14.0 | 0.00 | 0.00 | 0.00 | 61 | 1005.2 |
| 20260904131736 | 87 | 338 | 11.0 | 15.0 | 0.00 | 0.00 | 0.00 | 61 | 1005.2 |
| 20260904131232 | 87 | 311 | 11.0 | 14.0 | 0.00 | 0.00 | 0.00 | 60 | 1004.8 |
| 20260904130727 | 88 | 232 | 4.0 | 11.0 | 0.00 | 0.00 | 0.00 | 59 | 1005.2 |
| 20260904130226 | 87 | 295 | 9.0 | 17.0 | 0.00 | 0.00 | 0.00 | 61 | 1005.1 |
| 20260904125722 | 87 | 329 | 6.0 | 18.0 | 0.00 | 0.00 | 0.00 | 61 | 1005.1 |
| 20260904125217 | 88 | 340 | 9.0 | 11.0 | 0.00 | 0.00 | 0.00 | 60 | 1004.9 |
| 20260904124712 | 86 | 267 | 13.0 | 16.0 | 0.00 | 0.00 | 0.00 | 61 | 1004.9 |
| 20260904124208 | 87 | 288 | 7.0 | 18.0 | 0.00 | 0.00 | 0.00 | 61 | 1004.9 |
| 20260904123703 | 87 | 346 | 7.0 | 11.0 | 0.00 | 0.00 | 0.00 | 60 | 1004.7 |
| 20260904123158 | 87 | 269 | 8.0 | 10.0 | 0.00 | 0.00 | 0.00 | 61 | 1004.9 |
| 20260904122653 | 88 | 254 | 11.0 | 13.0 | 0.00 | 0.00 | 0.00 | 58 | 1005.0 |
| 20260904122148 | 87 | 335 | 11.0 | 14.0 | 0.00 | 0.00 | 0.00 | 60 | 1004.8 |
| 20260904121642 | 89 | 348 | 7.0 | 13.0 | 0.00 | 0.00 | 0.00 | 58 | 1004.9 |
| 20260904121138 | 88 | 285 | 9.0 | 11.0 | 0.00 | 0.00 | 0.00 | 57 | 1005.0 |
| 20260904120635 | 88 | 306 | 9.0 | 16.0 | 0.00 | 0.00 | 0.00 | 58 | 1005.1 |
| 20260904120131 | 88 | 0 | 6.0 | 17.0 | 0.00 | 0.00 | 0.00 | 58 | 1004.8 |
| 20260904115630 | 87 | 273 | 7.0 | 15.0 | 0.00 | 0.00 | 0.00 | 60 | 1004.9 |
| 20260904115125 | 88 | 281 | 10.0 | 13.0 | 0.00 | 0.00 | 0.00 | 57 | 1005.0 |
| 20260904114620 | 88 | 308 | 5.0 | 14.0 | 0.00 | 0.00 | 0.00 | 60 | 1005.1 |
| 20260904114114 | 88 | 314 | 4.0 | 10.0 | 0.00 | 0.00 | 0.00 | 59 | 1004.9 |
| 20260904113609 | 88 | 273 | 8.0 | 14.0 | 0.00 | 0.00 | 0.00 | 58 | 1004.9 |
| 20260904113108 | 88 | 7 | 3.0 | 10.0 | 0.00 | 0.00 | 0.00 | 59 | 1005.1 |
| 20260904112603 | 88 | 357 | 5.0 | 10.0 | 0.00 | 0.00 | 0.00 | 60 | 1005.0 |
| 20260904112100 | 89 | 273 | 7.0 | 10.0 | 0.00 | 0.00 | 0.00 | 57 | 1005.0 |
| 20260904111555 | 87 | 313 | 8.0 | 11.0 | 0.00 | 0.00 | 0.00 | 60 | 1005.0 |
| 20260904111050 | 88 | 264 | 8.0 | 13.0 | 0.00 | 0.00 | 0.00 | 59 | 1004.9 |
| 20260904110544 | 89 | 212 | 11.0 | 15.0 | 0.00 | 0.00 | 0.00 | 58 | 1005.3 |
| 20260904110040 | 88 | 301 | 8.0 | 11.0 | 0.00 | 0.00 | 0.00 | 57 | 1005.1 |
| 20260904105539 | 88 | 325 | 5.0 | 10.0 | 0.00 | 0.00 | 0.00 | 58 | 1005.2 |
| 20260904105035 | 89 | 264 | 10.0 | 13.0 | 0.00 | 0.00 | 0.00 | 57 | 1005.0 |
| 20260904104530 | 89 | 301 | 5.0 | 8.0 | 0.00 | 0.00 | 0.00 | 56 | 1005.1 |
| 20260904104026 | 88 | 274 | 2.0 | 9.0 | 0.00 | 0.00 | 0.00 | 58 | 1005.2 |
| 20260904103521 | 88 | 246 | 7.0 | 14.0 | 0.00 | 0.00 | 0.00 | 59 | 1005.3 |
| 20260904103017 | 89 | 4 | 12.0 | 13.0 | 0.00 | 0.00 | 0.00 | 56 | 1005.5 |
| 20260904102513 | 88 | 253 | 13.0 | 14.0 | 0.00 | 0.00 | 0.00 | 56 | 1005.2 |
| 20260904102008 | 89 | 342 | 7.0 | 9.0 | 0.00 | 0.00 | 0.00 | 57 | 1005.3 |
| 20260904101505 | 89 | 306 | 7.0 | 11.0 | 0.00 | 0.00 | 0.00 | 56 | 1005.1 |
| 20260904101000 | 88 | 287 | 8.0 | 11.0 | 0.00 | 0.00 | 0.00 | 58 | 1005.5 |
| 20260904100456 | 90 | 257 | 3.0 | 9.0 | 0.00 | 0.00 | 0.00 | 56 | 1005.3 |
| 20260904095955 | 89 | 233 | 8.0 | 10.0 | 0.00 | 0.00 | 0.00 | 56 | 1005.2 |
| 20260904095450 | 89 | 234 | 4.0 | 5.0 | 0.00 | 0.00 | 0.00 | 56 | 1005.2 |
| 20260904094945 | 89 | 288 | 4.0 | 10.0 | 0.00 | 0.00 | 0.00 | 57 | 1005.2 |
| 20260904094440 | 88 | 33 | 1.0 | 10.0 | 0.00 | 0.00 | 0.00 | 58 | 1005.4 |
| 20260904093936 | 88 | 276 | 6.0 | 9.0 | 0.00 | 0.00 | 0.00 | 58 | 1005.5 |
| 20260904093432 | 88 | 286 | 9.0 | 11.0 | 0.00 | 0.00 | 0.00 | 57 | 1005.6 |
| 20260904092927 | 87 | 346 | 1.0 | 5.0 | 0.00 | 0.00 | 0.00 | 56 | 1005.3 |
| 20260904092424 | 89 | 243 | 6.0 | 11.0 | 0.00 | 0.00 | 0.00 | 55 | 1005.4 |
| 20260904091919 | 89 | 344 | 5.0 | 9.0 | 0.00 | 0.00 | 0.00 | 54 | 1005.3 |
| 20260904091414 | 88 | 193 | 2.0 | 5.0 | 0.00 | 0.00 | 0.00 | 54 | 1005.5 |
| 20260904090903 | 87 | 286 | 5.0 | 11.0 | 0.00 | 0.00 | 0.00 | 55 | 1005.7 |
| 20260904090400 | 87 | 275 | 6.0 | 8.0 | 0.00 | 0.00 | 0.00 | 56 | 1005.6 |
| 20260904085854 | 89 | 244 | 9.0 | 10.0 | 0.00 | 0.00 | 0.00 | 54 | 1005.7 |
| 20260904085350 | 88 | 68 | 0.0 | 8.0 | 0.00 | 0.00 | 0.00 | 55 | 1005.9 |
| 20260904084849 | 87 | 248 | 5.0 | 9.0 | 0.00 | 0.00 | 0.00 | 55 | 1005.8 |
| 20260904084346 | 87 | 266 | 6.0 | 11.0 | 0.00 | 0.00 | 0.00 | 52 | 1005.7 |
| 20260904083841 | 87 | 170 | 4.0 | 9.0 | 0.00 | 0.00 | 0.00 | 57 | 1005.8 |
| 20260904083338 | 86 | 265 | 5.0 | 7.0 | 0.00 | 0.00 | 0.00 | 58 | 1005.9 |
| 20260904082834 | 85 | 354 | 8.0 | 9.0 | 0.00 | 0.00 | 0.00 | 58 | 1005.9 |
| 20260904082327 | 85 | 307 | 3.0 | 9.0 | 0.00 | 0.00 | 0.00 | 60 | 1005.8 |
| 20260904081822 | 86 | 332 | 2.0 | 7.0 | 0.00 | 0.00 | 0.00 | 62 | 1006.1 |
| 20260904081318 | 86 | 259 | 3.0 | 6.0 | 0.00 | 0.00 | 0.00 | 62 | 1005.9 |
| 20260904080814 | 86 | 29 | 0.0 | 1.0 | 0.00 | 0.00 | 0.00 | 61 | 1005.9 |
| 20260904080309 | 85 | 241 | 3.0 | 5.0 | 0.00 | 0.00 | 0.00 | 61 | 1005.9 |
| 20260904075805 | 84 | 281 | 4.0 | 10.0 | 0.00 | 0.00 | 0.00 | 62 | 1005.9 |
| 20260904075259 | 86 | 248 | 3.0 | 9.0 | 0.00 | 0.00 | 0.00 | 62 | 1006.2 |
| 20260904074753 | 83 | 180 | 1.0 | 5.0 | 0.00 | 0.00 | 0.00 | 63 | 1006.0 |
| 20260904074249 | 84 | 273 | 9.0 | 13.0 | 0.00 | 0.00 | 0.00 | 63 | 1006.0 |
| 20260904073744 | 83 | 282 | 3.0 | 7.0 | 0.00 | 0.00 | 0.00 | 65 | 1006.2 |
| 20260904073240 | 84 | 245 | 11.0 | 13.0 | 0.00 | 0.00 | 0.00 | 64 | 1006.4 |
| 20260904072736 | 83 | 180 | 3.0 | 6.0 | 0.00 | 0.00 | 0.00 | 65 | 1006.2 |
| 20260904072235 | 82 | 247 | 3.0 | 7.0 | 0.00 | 0.00 | 0.00 | 66 | 1006.2 |
| 20260904071732 | 82 | 302 | 5.0 | 9.0 | 0.00 | 0.00 | 0.00 | 67 | 1006.4 |
| 20260904071231 | 83 | 240 | 5.0 | 8.0 | 0.00 | 0.00 | 0.00 | 68 | 1006.2 |
| 20260904070726 | 82 | 256 | 4.0 | 8.0 | 0.00 | 0.00 | 0.00 | 68 | 1006.0 |
| 20260904070225 | 83 | 259 | 7.0 | 10.0 | 0.00 | 0.00 | 0.00 | 68 | 1006.3 |
| 20260904065720 | 83 | 106 | 1.0 | 3.0 | 0.00 | 0.00 | 0.00 | 69 | 1006.0 |
| 20260904065217 | 81 | 240 | 5.0 | 7.0 | 0.00 | 0.00 | 0.00 | 69 | 1006.1 |
| 20260904064716 | 81 | 247 | 3.0 | 7.0 | 0.00 | 0.00 | 0.00 | 71 | 1006.3 |
| 20260904064212 | 82 | 225 | 6.0 | 8.0 | 0.00 | 0.00 | 0.00 | 69 | 1006.1 |
| 20260904063708 | 83 | 309 | 5.0 | 6.0 | 0.00 | 0.00 | 0.00 | 69 | 1006.0 |
| 20260904063204 | 82 | 253 | 3.0 | 7.0 | 0.00 | 0.00 | 0.00 | 69 | 1006.0 |
| 20260904062700 | 82 | 254 | 3.0 | 5.0 | 0.00 | 0.00 | 0.00 | 70 | 1005.8 |
| 20260904062155 | 82 | 197 | 3.0 | 5.0 | 0.00 | 0.00 | 0.00 | 70 | 1006.0 |
| 20260904061650 | 81 | 170 | 1.0 | 5.0 | 0.00 | 0.00 | 0.00 | 72 | 1006.0 |
| 20260904061147 | 80 | 252 | 3.0 | 7.0 | 0.00 | 0.00 | 0.00 | 73 | 1005.9 |
| 20260904060643 | 80 | 227 | 3.0 | 5.0 | 0.00 | 0.00 | 0.00 | 73 | 1005.9 |
| 20260904060138 | 81 | 240 | 4.0 | 9.0 | 0.00 | 0.00 | 0.00 | 73 | 1005.9 |
| 20260904055633 | 80 | 270 | 1.0 | 6.0 | 0.00 | 0.00 | 0.00 | 74 | 1006.0 |
| 20260904055128 | 80 | 185 | 4.0 | 7.0 | 0.00 | 0.00 | 0.00 | 74 | 1005.9 |
| 20260904054624 | 80 | 345 | 3.0 | 6.0 | 0.00 | 0.00 | 0.00 | 75 | 1005.9 |
| 20260904054120 | 80 | 269 | 3.0 | 8.0 | 0.00 | 0.00 | 0.00 | 75 | 1005.8 |
| 20260904053614 | 79 | 227 | 2.0 | 3.0 | 0.00 | 0.00 | 0.00 | 76 | 1005.7 |
| 20260904053109 | 79 | 248 | 4.0 | 8.0 | 0.00 | 0.00 | 0.00 | 76 | 1005.7 |
| 20260904052606 | 79 | 200 | 3.0 | 6.0 | 0.00 | 0.00 | 0.00 | 77 | 1005.8 |
| 20260904052101 | 79 | 248 | 5.0 | 8.0 | 0.00 | 0.00 | 0.00 | 77 | 1005.6 |
| 20260904051558 | 79 | 75 | 2.0 | 6.0 | 0.00 | 0.00 | 0.00 | 78 | 1005.8 |
| 20260904051057 | 79 | 208 | 5.0 | 7.0 | 0.00 | 0.00 | 0.00 | 79 | 1005.7 |
| 20260904050553 | 78 | 149 | 4.0 | 7.0 | 0.00 | 0.00 | 0.00 | 80 | 1005.7 |
| 20260904050049 | 78 | 212 | 4.0 | 6.0 | 0.00 | 0.00 | 0.00 | 80 | 1005.7 |
| 20260904045544 | 77 | 223 | 3.0 | 5.0 | 0.00 | 0.00 | 0.00 | 81 | 1005.7 |
| 20260904045043 | 77 | 189 | 2.0 | 3.0 | 0.00 | 0.00 | 0.00 | 82 | 1005.7 |
| 20260904044539 | 77 | 39 | 0.0 | 0.0 | 0.00 | 0.00 | 0.00 | 84 | 1005.6 |